TimeEST,TemperatureF,Dew PointF,Humidity,Sea Level PressureIn,VisibilityMPH,Wind Direction,Wind SpeedMPH,Gust SpeedMPH,PrecipitationIn,Events,Conditions,WindDirDegrees,DateUTC
12:53 AM,48.0,37.0,66,29.58,9.0,SSW,27.6,38.0,0.00,Rain,Light Rain,200,2013-02-19 05:53:00
1:48 AM,46.4,39.2,76,29.54,10.0,South,19.6,25.3,0.03,Rain,Light Rain,180,2013-02-19 06:48:00
1:53 AM,46.0,39.0,76,29.54,10.0,South,17.3,25.3,0.03,Rain,Light Rain,180,2013-02-19 06:53:00
2:53 AM,45.0,39.0,80,29.49,6.0,South,20.7,31.1,0.03,Rain,Light Rain,180,2013-02-19 07:53:00
3:53 AM,45.0,39.0,80,29.44,6.0,South,19.6,27.6,0.05,Rain,Light Rain,180,2013-02-19 08:53:00
4:36 AM,46.4,39.2,76,29.43,5.0,SSW,25.3,39.1,0.01,Rain,Light Rain,200,2013-02-19 09:36:00
4:53 AM,45.0,39.9,82,29.43,4.0,SSW,27.6,33.4,0.01,Rain,Light Rain,200,2013-02-19 09:53:00
5:27 AM,39.2,37.4,93,29.47,10.0,West,21.9,33.4,0.01,,Overcast,260,2013-02-19 10:27:00
5:46 AM,39.2,-9999,N/A,29.49,10.0,WSW,17.3,26.5,0.01,,Overcast,250,2013-02-19 10:46:00
5:53 AM,39.0,-9999,N/A,29.49,10.0,West,15.0,24.2,0.01,,Overcast,260,2013-02-19 10:53:00
6:53 AM,37.9,-9999,N/A,29.54,8.0,WSW,21.9,28.8,N/A,,Overcast,250,2013-02-19 11:53:00
7:45 AM,35.6,33.8,93,29.55,2.5,WSW,15.0,23.0,0.00,Rain,Light Rain,240,2013-02-19 12:45:00
7:53 AM,36.0,33.1,89,29.56,2.5,SW,19.6,25.3,0.00,Rain,Light Rain,230,2013-02-19 12:53:00
8:05 AM,33.8,32.0,93,29.56,2.5,SW,20.7,26.5,0.00,Rain,Light Freezing Rain,220,2013-02-19 13:05:00
8:53 AM,32.0,28.9,88,29.60,2.5,SW,20.7,36.8,0.00,,Overcast,230,2013-02-19 13:53:00
9:00 AM,30.2,28.4,93,29.59,6.0,SW,24.2,28.8,N/A,,Overcast,230,2013-02-19 14:00:00
9:19 AM,30.2,28.4,93,29.60,4.0,SW,25.3,32.2,0.00,,Overcast,230,2013-02-19 14:19:00
9:53 AM,28.9,26.1,89,29.63,5.0,SW,25.3,33.4,0.00,Rain,Light Freezing Rain,230,2013-02-19 14:53:00
10:00 AM,28.4,24.8,86,29.62,4.0,SW,27.6,33.4,0.00,Snow,Light Snow,230,2013-02-19 15:00:00
10:06 AM,28.4,24.8,86,29.62,2.5,SW,26.5,33.4,0.00,Snow,Light Snow,220,2013-02-19 15:06:00
10:16 AM,28.4,24.8,86,29.63,1.5,SW,21.9,32.2,0.00,Snow,Light Snow,230,2013-02-19 15:16:00
10:53 AM,28.9,23.0,78,29.64,1.2,WSW,24.2,31.1,0.00,Snow,Light Snow,250,2013-02-19 15:53:00
11:01 AM,28.4,23.0,80,29.63,3.0,WSW,18.4,34.5,0.00,Snow,Light Snow,240,2013-02-19 16:01:00
11:20 AM,28.4,19.4,69,29.64,9.0,WSW,26.5,40.3,0.00,Snow,Light Snow,250,2013-02-19 16:20:00
11:53 AM,28.0,19.9,72,29.67,3.0,WSW,23.0,28.8,0.00,Snow,Light Snow,240,2013-02-19 16:53:00
12:36 PM,28.4,17.6,64,29.66,10.0,WSW,28.8,38.0,0.00,,Overcast,250,2013-02-19 17:36:00
1:06 PM,26.6,15.8,64,29.67,9.0,West,28.8,39.1,0.00,,Overcast,260,2013-02-19 18:06:00
1:34 PM,24.8,15.8,69,29.68,1.8,WSW,27.6,38.0,0.00,Snow,Light Snow,250,2013-02-19 18:34:00
1:44 PM,26.6,17.6,69,29.69,3.0,WSW,25.3,35.7,0.00,Snow,Light Snow,250,2013-02-19 18:44:00
1:53 PM,28.0,17.1,63,29.70,8.0,West,28.8,34.5,0.00,Snow,Light Snow,260,2013-02-19 18:53:00
2:53 PM,26.1,12.9,58,29.71,9.0,WSW,25.3,38.0,0.00,Rain,Light Freezing Rain,250,2013-02-19 19:53:00
3:14 PM,26.6,14.0,59,29.72,7.0,WSW,27.6,35.7,0.00,Snow,Light Snow,250,2013-02-19 20:14:00
3:53 PM,25.0,12.0,58,29.75,9.0,West,28.8,35.7,0.00,Snow,Light Snow,260,2013-02-19 20:53:00
4:53 PM,24.1,12.0,60,29.79,10.0,WSW,19.6,28.8,0.00,,Overcast,240,2013-02-19 21:53:00
5:39 PM,23.0,12.2,63,29.80,4.0,WSW,23.0,35.7,0.00,Snow,Light Snow,250,2013-02-19 22:39:00
5:47 PM,23.0,12.2,63,29.81,1.8,West,23.0,35.7,0.00,Snow,Light Snow,260,2013-02-19 22:47:00
5:58 PM,21.2,12.2,68,29.82,2.0,WSW,23.0,31.1,0.00,Snow,Light Snow,240,2013-02-19 22:58:00
6:06 PM,21.2,12.2,68,29.82,1.5,WSW,24.2,32.2,0.00,Snow,Light Snow,250,2013-02-19 23:06:00
7:28 PM,21.2,12.2,68,29.86,9.0,WSW,18.4,29.9,0.00,,Overcast,250,2013-02-20 00:28:00
7:53 PM,21.9,10.9,63,29.89,10.0,WSW,20.7,31.1,0.00,Snow,Light Snow,250,2013-02-20 00:53:00
8:24 PM,21.2,10.4,63,29.89,10.0,West,20.7,29.9,0.00,,Overcast,260,2013-02-20 01:24:00
8:53 PM,21.9,10.9,63,29.92,10.0,West,21.9,27.6,0.00,,Overcast,260,2013-02-20 01:53:00
9:18 PM,21.2,12.2,68,29.90,1.8,West,20.7,27.6,0.00,Snow,Light Snow,260,2013-02-20 02:18:00
9:27 PM,21.2,14.0,74,29.91,0.8,West,17.3,-,0.00,Snow,Light Snow,270,2013-02-20 02:27:00
9:46 PM,21.2,15.8,80,29.91,1.2,West,11.5,-,0.00,Snow,Light Snow,260,2013-02-20 02:46:00
9:53 PM,19.9,15.1,81,29.94,1.8,West,12.7,-,0.00,Snow,Light Snow,260,2013-02-20 02:53:00
9:56 PM,21.2,14.0,74,29.92,3.0,West,13.8,-,0.00,Snow,Light Snow,260,2013-02-20 02:56:00
10:06 PM,21.2,14.0,74,29.92,2.0,WSW,12.7,-,0.00,Snow,Light Snow,250,2013-02-20 03:06:00
10:32 PM,19.4,12.2,74,29.92,7.0,WSW,13.8,-,0.00,Snow,Light Snow,250,2013-02-20 03:32:00
10:53 PM,19.9,12.0,71,29.95,10.0,WSW,13.8,-,0.00,,Overcast,250,2013-02-20 03:53:00
11:53 PM,21.0,10.0,63,29.95,10.0,West,17.3,31.1,N/A,,Overcast,270,2013-02-20 04:53:00